This is the latest recevied weather packets stored in our database for station/object p43g-13. If no packets are shown the sender has not sent any weather packets the latest 10 day(s).
| Time | Temp. | Humidity | Pressure | Rain* | Wind** | Luminosity | Snow |
|---|---|---|---|---|---|---|---|
| 1787492668 | 31.11° C | 76% | 1012.5 hPa | 0 mm | - | 439 W/m² | - |
| 1787492370 | 31.11° C | 75% | 1012.6 hPa | 0 mm | - | 303 W/m² | - |
| 1787492068 | 31.67° C | 74% | 1012.4 hPa | 0 mm | - | 537 W/m² | - |
| 1787491770 | 31.11° C | 76% | 1012.5 hPa | 0 mm | - | 591 W/m² | - |
| 1787491456 | 30.56° C | 77% | 1012.5 hPa | 0 mm | - | 226 W/m² | - |
| 1787491161 | 30.56° C | 76% | 1012.6 hPa | 0 mm | - | 212 W/m² | - |
| 1787490856 | 30.56° C | 77% | 1012.5 hPa | 0 mm | - | 483 W/m² | - |
| 1787490559 | 30.56° C | 77% | 1012.5 hPa | 0 mm | - | 499 W/m² | - |
| 1787490256 | 31.11° C | 77% | 1012.6 hPa | 0 mm | - | 123 W/m² | - |
| 1787489959 | 30.56° C | 77% | 1012.6 hPa | 0 mm | - | 301 W/m² | - |
| 1787489657 | 30.56° C | 77% | 1012.3 hPa | 0 mm | - | 383 W/m² | - |
| 1787489360 | 30° C | 77% | 1012.3 hPa | 0 mm | - | 350 W/m² | - |
| 1787489056 | 30.56° C | 77% | 1012.6 hPa | 0 mm | - | 293 W/m² | - |
| 1787488758 | 30° C | 78% | 1012.2 hPa | 0 mm | - | 289 W/m² | - |
| 1787488455 | 30° C | 78% | 1012.3 hPa | 0 mm | - | 272 W/m² | - |
| 1787488159 | 30° C | 79% | 1012.2 hPa | 0 mm | - | 252 W/m² | - |
| 1787487856 | 29.44° C | 80% | 1012.4 hPa | 0 mm | - | 226 W/m² | - |
| 1787487559 | 29.44° C | 81% | 1012.4 hPa | 0 mm | - | 215 W/m² | - |
| 1787487256 | 29.44° C | 82% | 1012.1 hPa | 0 mm | - | 204 W/m² | - |
| 1787486959 | 29.44° C | 83% | 1012.3 hPa | 0 mm | - | 188 W/m² | - |
| 1787486656 | 29.44° C | 84% | 1012 hPa | 0 mm | - | 174 W/m² | - |
| 1787486360 | 28.89° C | 85% | 1012.1 hPa | 0 mm | - | 158 W/m² | - |
| 1787486056 | 28.89° C | 85% | 1012.2 hPa | 0 mm | - | 94 W/m² | - |
| 1787485744 | 28.89° C | 85% | 1012.1 hPa | 0 mm | - | 128 W/m² | - |
| 1787485444 | 28.89° C | 86% | 1012.1 hPa | 0 mm | - | 110 W/m² | - |
* Rain latest hour (hover to see other rain measurements)
** Current wind speed in m/s (hover to see current wind gust speed)